sat.trackr.live / text

‹ back to catalog

STARLINK-3885

NORAD 52463 · 2022-049N

PAYLOAD ACTIVE UNKNOWN

§ Identity

Operator
Country
US
Launch date
2022-05-06
Launch site
AFETR
Launch vehicle
Mass (kg)
RCS (m²)

Purposes: comms

External: N2YO · Heavens-Above · Gunter

§ Orbital elements

Epoch: 2026-09-19T16:33:03.751200Z

Period
93.79 min
Inclination
53.1607°
Eccentricity
0.0001309
Mean motion
15.35395799 rev/d
Perigee alt
458.9 km
Apogee alt
460.6 km
Semi-major
6,837.9 km
B*
2.5132e-5
RAAN
247.7826°
Arg perigee
92.0797°
Mean anomaly
268.0356°
Rev number
24,181

§ Raw data

STARLINK-38851 52463U 22049N   26262.68962675  .00000496  00000+0  25132-4 0  99992 52463  53.1607 247.7826 0001309  92.0797 268.0356 15.35395799241819

JSON: /api/v1/satellites/52463 · /tle

For live sub-satellite position, see the globe view (requires WebGL).

§ Visibility from observer

Set your observer location to see the next 7 days of passes ≥ 10°. The values pass through the URL so the page stays shareable.

No JS? Fill the form by hand. The geolocation button needs JavaScript.